FW7079 Weather Reports


Display with metric or nautical units.
time (UTC)temp
F
wind
direction
speed
MPH
gust
MPH
rain 1hr
in
rain 24hr
in
rain mn
in
humidity
%
barometer
mb
20260903123102 75 61 0.0 2.0 0.00 0.00 0.00 82 1015.1
20260903121555 74 142 0.0 1.0 0.00 0.00 0.00 81 1014.9
20260903120058 75 0 0.0 0.0 0.00 0.00 0.00 81 1014.7
20260903114558 75 0 0.0 3.0 0.00 0.00 0.00 79 1014.7
20260903113057 76 142 0.0 1.0 0.00 0.00 0.00 79 1014.5
20260903111608 76 0 0.0 1.0 0.00 0.00 0.00 78 1014.4
20260903110105 77 0 0.0 1.0 0.00 0.00 0.00 78 1014.4
20260903104623 77 0 0.0 1.0 0.00 0.00 0.00 77 1014.3
20260903103105 77 0 0.0 3.0 0.00 0.00 0.00 76 1014.4
20260903101557 78 131 0.0 3.0 0.00 0.00 0.00 76 1014.4
20260903100106 78 136 0.0 3.0 0.00 0.00 0.00 75 1014.5
20260903094611 78 136 0.0 2.0 0.00 0.00 0.00 74 1014.3
20260903093106 79 131 0.0 2.0 0.00 0.00 0.00 73 1014.3
20260903091605 79 0 0.0 3.0 0.00 0.00 0.00 72 1014.3
20260903090104 80 142 0.0 3.0 0.00 0.00 0.00 71 1014.4
20260903084603 80 153 1.0 4.0 0.00 0.00 0.00 71 1014.4
20260903083106 81 0 0.0 3.0 0.00 0.00 0.00 70 1014.3
20260903081614 81 142 0.0 2.0 0.00 0.00 0.00 69 1014.2
20260903080058 81 0 0.0 2.0 0.00 0.00 0.00 68 1014.1
20260903074558 82 76 0.0 4.0 0.00 0.00 0.00 67 1014.0
20260903073059 82 128 1.0 2.0 0.00 0.00 0.00 67 1014.1
20260903071602 83 44 0.0 3.0 0.00 0.00 0.00 66 1014.2
20260903070058 83 0 1.0 6.0 0.00 0.00 0.00 64 1014.2
20260903064558 84 149 1.0 4.0 0.00 0.00 0.00 63 1014.1
20260903063103 84 130 0.0 4.0 0.00 0.00 0.00 62 1014.2
20260903061604 85 136 1.0 6.0 0.00 0.00 0.00 62 1014.3
20260903060104 85 136 1.0 8.0 0.00 0.00 0.00 62 1014.1
20260903054601 85 0 1.0 4.0 0.00 0.00 0.00 61 1014.1
20260903053100 86 165 1.0 7.0 0.00 0.00 0.00 60 1014.1
20260903051559 86 159 2.0 6.0 0.00 0.00 0.00 59 1014.0
20260903050059 86 132 1.0 9.0 0.00 0.00 0.00 58 1013.9
20260903044600 86 86 0.0 3.0 0.00 0.00 0.00 57 1013.8
20260903043101 85 89 0.0 3.0 0.00 0.00 0.00 57 1013.8
20260903041558 85 0 0.0 1.0 0.00 0.00 0.00 57 1013.9
20260903040058 85 0 0.0 1.0 0.00 0.00 0.00 57 1014.0
20260903034607 85 0 0.0 1.0 0.00 0.00 0.00 57 1013.9
20260903033104 85 0 0.0 1.0 0.00 0.00 0.00 56 1013.9
20260903031557 84 0 0.0 1.0 0.00 0.00 0.00 58 1013.9
20260903030124 84 0 0.0 0.0 0.00 0.00 0.00 56 1013.8
20260903024556 84 0 0.0 1.0 0.00 0.00 0.00 56 1013.7
20260903023108 85 0 0.0 0.0 0.00 0.00 0.00 55 1013.5
20260903021558 85 0 0.0 0.0 0.00 0.00 0.00 55 1013.3
20260903020104 86 0 0.0 2.0 0.00 0.00 0.00 54 1013.3
20260903014614 87 0 0.0 0.0 0.00 0.00 0.00 53 1013.1
20260903013059 88 0 0.0 1.0 0.00 0.00 0.00 51 1012.9
20260903011605 90 0 0.0 1.0 0.00 0.00 0.00 49 1012.7
20260903010105 92 101 0.0 1.0 0.00 0.00 0.00 46 1012.6
20260903004606 94 0 0.0 3.0 0.00 0.00 0.00 43 1012.5
20260903003103 95 0 0.0 4.0 0.00 0.00 0.00 41 1012.5
20260903001610 96 79 1.0 5.0 0.00 0.00 0.00 41 1012.3
20260903000109 96 207 1.0 4.0 0.00 0.00 0.00 41 1012.4
20260902234559 97 44 0.0 4.0 0.00 0.00 0.00 40 1012.3
20260902233105 98 186 1.0 5.0 0.00 0.00 0.00 40 1012.4
20260902231603 98 109 2.0 7.0 0.00 0.00 0.00 40 1012.4
20260902230104 98 98 2.0 6.0 0.00 0.00 0.00 40 1012.4
20260902224604 99 86 1.0 8.0 0.00 0.00 0.00 40 1012.7
20260902223101 98 139 1.0 4.0 0.00 0.00 0.00 41 1012.5
20260902221613 98 66 1.0 5.0 0.00 0.00 0.00 41 1012.7
20260902220108 100 0.0 0.0 0.00 0.00 0.00 39 1012.8
20260902214558 100 39 1.0 4.0 0.00 0.00 0.00 40 1012.8
20260902213059 100 68 2.0 7.0 0.00 0.00 0.00 39 1013.0
20260902211559 100 175 2.0 8.0 0.00 0.00 0.00 39 1013.2
20260902210100 101 93 4.0 0.0 0.00 0.00 0.00 37 1013.4
20260902204614 102 0.0 0.0 0.00 0.00 0.00 38 1013.6
20260902203058 101 0.0 0.0 0.00 0.00 0.00 38 1013.7
20260902201603 101 174 4.0 6.0 0.00 0.00 0.00 39 1013.9
20260902200100 101 219 3.0 9.0 0.00 0.00 0.00 39 1014.1
20260902194609 101 0.0 0.0 0.00 0.00 0.00 39 1014.3
20260902193101 101 69 2.0 10.0 0.00 0.00 0.00 40 1014.5
20260902191605 101 96 2.0 3.0 0.00 0.00 0.00 41 1014.9
20260902184603 100 0.0 0.0 0.00 0.00 0.00 42 1015.1
20260902183138 100 0.0 0.0 0.00 0.00 0.00 42 1015.4
20260902181604 100 0.0 0.0 0.00 0.00 0.00 42 1015.8
20260902180105 100 0.0 0.0 0.00 0.00 0.00 43 1016.0
20260902174603 98 0.0 0.0 0.00 0.00 0.00 45 1016.2
20260902173102 98 0.0 0.0 0.00 0.00 0.00 44 1016.4
20260902171620 97 0.0 0.0 0.00 0.00 0.00 45 1016.6
20260902170104 96 144 3.0 8.0 0.00 0.00 0.00 48 1016.7
20260902164625 95 0.0 0.0 0.00 0.00 0.00 48 1017.0
20260902163052 94 0.0 0.0 0.00 0.00 0.00 50 1017.1
20260902161603 94 136 2.0 8.0 0.00 0.00 0.00 51 1017.2
20260902160110 93 78 3.0 10.0 0.00 0.00 0.00 51 1017.1
20260902154602 92 115 3.0 8.0 0.00 0.00 0.00 53 1017.2
20260902153104 91 132 3.0 9.0 0.00 0.00 0.00 55 1017.3
20260902151603 90 205 4.0 10.0 0.00 0.00 0.00 55 1017.4
20260902150059 89 89 3.0 9.0 0.00 0.00 0.00 58 1017.4
20260902144606 87 143 3.0 10.0 0.00 0.00 0.00 60 1017.4
20260902143058 86 195 3.0 9.0 0.00 0.00 0.00 62 1017.4
20260902141600 85 131 4.0 9.0 0.00 0.00 0.00 64 1017.3
20260902140100 83 143 2.0 9.0 0.00 0.00 0.00 66 1017.3
20260902134558 83 142 2.0 6.0 0.00 0.00 0.00 68 1017.3
20260902133058 82 165 1.0 7.0 0.00 0.00 0.00 70 1017.4
20260902131613 81 142 1.0 4.0 0.00 0.00 0.00 71 1017.2
20260902130113 79 137 1.0 4.0 0.00 0.00 0.00 74 1017.4
20260902124601 78 0 0.0 2.0 0.00 0.00 0.00 75 1017.1